Temperature
27 26 26 25 24 23 22 22 21 21 21 21 20 20 20 20 20 20 20 19 18 18 18 17 17 17 16 16 16 16 16 16 16 16 17 17 18 18 18 18 18 18 18
25 25 24 24 23 22 22 21 21 21 21 21 21 21 21 20 20 20 19 19 18 18 17 17 17 16 16 16 16 16 16 16 16 16 16 16 17 18 18 18 18 18 18
24 23 23 23 22 21 21 21 21 20 20 20 20 20 20 20 20 20 19 19 19 18 18 17 17 17 16 16 16 16 15 15 16 16 15 16 17 17 18 18 18 18 18
23 22 22 21 21 21 20 20 20 20 20 20 20 20 19 20 20 19 19 19 18 18 17 17 17 17 16 16 16 15 15 15 15 15 15 15 15 15 16 17 18 18 18
21 20 20 20 20 20 20 19 19 19 19 19 19 19 19 19 19 19 19 18 18 18 17 17 17 17 16 16 16 16 16 15 15 15 15 15 15 15 15 16 17 17 17
19 19 19 19 19 19 19 19 18 18 18 18 18 18 18 18 18 18 18 18 17 17 17 17 17 17 16 16 16 16 15 15 15 14 14 14 14 15 15 15 16 16 17
18 17 17 17 17 17 17 17 17 17 17 17 17 17 17 17 17 17 17 17 17 17 17 16 16 16 16 16 15 15 15 15 15 14 14 14 14 14 15 15 15 16 16
17 16 16 16 15 15 15 16 16 16 16 16 16 16 16 16 16 16 16 16 16 16 16 16 16 16 16 15 15 15 15 15 14 14 14 14 14 14 14 15 15 15 15
17 16 16 15 15 14 14 14 14 14 14 15 15 14 15 14 15 15 15 15 15 15 15 15 15 15 15 15 15 15 15 14 14 14 14 14 14 14 14 14 15 15 15
18 17 16 15 14 14 14 14 14 13 14 14 14 13 14 14 14 14 14 14 14 14 14 14 14 14 14 14 14 14 14 14 14 14 14 14 14 14 14 14 14 15 15
17 17 16 15 14 14 14 13 13 13 13 13 13 13 13 13 13 13 13 13 13 14 14 14 14 14 14 14 14 14 14 14 14 14 14 14 14 14 14 14 14 14 15
16 16 15 15 14 13 13 12 12 12 12 12 11 12 11 12 12 12 12 12 13 13 13 13 13 13 13 13 13 13 13 13 13 13 14 13 13 14 14 14 14 14 15
16 15 14 13 13 13 12 12 11 11 11 11 11 11 11 10 10 11 11 11 11 12 12 12 12 12 13 13 13 13 13 13 13 13 13 13 13 13 14 14 14 14 14
16 15 14 13 12 12 12 12 11 11 11 11 10 10 10 10 10 10 10 10 10 10 11 11 11 12 12 12 12 13 13 13 13 13 13 13 13 13 13 13 14 14 14
16 15 14 13 13 13 12 12 12 11 11 11 11 10 10 10 10 10 10 10 10 10 10 10 10 11 11 11 12 12 12 12 12 12 12 12 12 13 13 13 13 13 13
16 15 14 14 13 13 12 12 12 11 11 11 11 11 10 10 10 10 10 10 10 9 9 9 10 10 10 11 11 11 12 12 12 12 12 12 12 12 12 13 13 13 13
15 14 14 13 13 12 12 12 11 11 11 11 10 10 10 10 10 10 10 10 9 9 9 9 9 10 10 10 10 11 11 12 12 12 12 12 12 12 12 12 12 12 12
14 14 13 13 12 12 12 11 11 11 11 10 10 10 10 10 10 10 10 9 9 9 9 9 9 9 9 10 10 10 11 11 11 11 11 11 11 11 11 11 11 11 11
14 13 13 12 12 12 11 11 11 10 10 10 10 10 10 10 9 9 9 9 9 9 9 9 9 9 9 9 10 10 10 10 11 11 11 11 11 11 11 11 11 11 11
13 12 12 12 12 11 11 11 10 10 10 10 10 9 9 9 9 9 9 9 8 8 8 8 9 9 9 9 9 9 10 10 10 10 11 11 11 11 11 11 11 11 10
12 12 12 11 11 11 10 10 10 10 9 9 9 9 9 9 9 8 8 8 8 8 8 8 8 8 9 9 9 9 9 10 10 10 10 10 10 10 10 10 11 11 10
12 12 11 11 10 10 10 9 9 9 9 8 8 8 8 8 8 8 8 8 8 8 8 8 8 8 9 9 9 9 9 9 9 9 10 10 10 10 10 10 10 10 10
11 11 10 10 9 9 9 8 8 8 8 7 7 7 7 7 7 7 7 8 8 8 8 8 8 8 8 8 8 9 9 9 9 9 9 9 10 10 10 10 10 10 10
10 10 9 9 8 8 7 7 7 7 6 6 6 6 6 6 6 7 7 7 7 8 8 8 8 8 8 8 8 8 8 8 8 8 9 9 9 10 10 10 10 10 10
9 9 8 7 7 7 6 6 6 6 6 5 5 5 6 6 6 6 6 7 7 7 8 8 8 8 8 8 8 8 8 8 8 8 8 9 9 9 10 10 10 10 11
8 7 7 6 6 6 5 5 5 5 5 5 5 5 5 5 5 6 6 6 7 7 7 7 8 8 8 8 8 7 7 7 7 8 8 8 9 9 10 10 10 10 11
Wind_Speed
8 6 7 7 9 8 9 8 9 7 5 4 5 4 3 2 1 2 5 3 2 4 3 4 5 5 5 6 7 6 7 6 6 6 7 8 10 11 10 10 10 11 11
6 6 4 5 7 9 9 8 8 8 6 4 2 2 2 1 2 3 4 3 2 3 3 4 4 5 5 7 6 6 5 6 5 5 5 5 6 7 11 10 11 12 10
5 7 5 5 5 5 7 8 8 7 5 5 3 2 2 2 2 2 2 3 1 1 1 2 3 4 5 5 6 6 7 6 6 5 4 4 4 5 4 6 8 9 8
9 9 7 6 6 6 4 4 6 5 4 4 1 2 2 2 0 1 2 2 1 3 2 3 3 3 5 6 6 6 6 7 7 6 5 6 7 6 5 5 5 7 7
13 13 11 9 8 7 5 4 4 4 3 1 1 1 3 3 2 1 1 1 3 4 5 3 1 3 4 5 5 6 7 6 7 7 7 7 7 8 7 8 6 5 4
15 15 14 14 14 11 8 6 4 3 3 2 3 2 4 4 5 5 4 3 4 3 3 2 0 3 4 5 6 6 8 7 8 8 7 7 7 6 7 8 7 6 5
16 16 16 16 15 15 13 12 11 8 7 6 5 5 5 5 5 6 6 5 4 4 1 1 1 3 5 6 6 7 7 8 8 8 8 8 8 8 8 8 8 7 5
15 15 15 14 14 14 15 15 13 12 11 10 9 8 7 6 5 7 7 7 6 6 4 3 4 5 6 7 6 6 8 7 7 9 9 7 8 8 8 7 7 6 5
12 12 12 12 11 12 12 12 11 11 11 11 10 8 9 8 8 8 7 7 7 8 8 7 6 6 6 7 7 7 7 8 8 8 9 8 7 7 7 7 6 6 5
10 9 9 8 8 8 7 8 7 7 8 8 8 8 8 8 8 8 9 8 9 9 9 9 9 8 7 7 7 7 7 8 7 7 8 8 8 7 7 7 6 7 6
8 8 7 6 6 7 7 6 6 6 5 6 6 6 6 7 7 7 7 8 9 9 9 9 9 9 9 8 7 7 8 8 8 8 8 8 8 7 7 6 6 7 6
8 8 8 8 8 8 8 8 8 8 7 7 6 7 7 7 7 8 8 8 9 10 10 10 10 10 10 9 8 8 8 7 8 7 7 8 7 7 6 5 6 6 6
9 10 9 9 9 9 9 9 9 9 9 8 8 8 8 8 8 9 8 8 9 9 10 11 10 10 10 10 9 8 8 7 6 6 6 7 7 6 5 5 5 5 5
12 11 9 9 9 9 10 10 10 10 10 9 10 10 10 10 10 11 10 10 10 9 9 10 10 10 11 11 10 8 7 6 5 4 4 5 5 5 4 3 3 3 5
16 12 10 10 10 10 10 10 11 10 10 10 11 11 11 11 11 11 11 11 11 12 9 9 10 10 10 11 9 7 8 5 4 3 2 2 3 4 3 2 1 3 5
14 12 12 11 10 10 10 10 9 9 9 10 11 10 11 11 11 12 12 11 11 11 10 9 9 10 11 9 8 7 7 5 4 3 1 1 1 2 4 5 4 4 7
14 15 15 12 10 11 10 10 10 9 10 10 11 10 11 11 11 13 12 11 11 11 10 10 9 10 10 10 8 9 7 6 5 3 3 2 2 2 4 7 9 9 9
20 18 16 15 13 12 11 10 12 11 11 11 11 11 11 11 10 10 10 10 9 10 9 10 10 9 10 9 8 8 8 7 5 4 5 4 4 4 5 7 9 9 8
18 16 17 18 14 13 13 12 13 13 13 13 12 11 11 11 10 10 9 9 9 9 9 10 10 10 9 7 8 7 5 5 5 5 6 7 7 7 9 10 11 11 10
17 17 19 18 14 12 11 13 16 15 14 13 12 11 10 11 11 10 10 10 9 9 10 11 10 9 8 6 7 7 4 4 4 5 6 9 10 10 9 9 11 11 9
18 17 16 14 12 12 12 14 15 15 14 13 12 11 11 11 11 11 10 10 10 10 10 10 10 9 8 6 8 9 5 4 3 4 6 8 14 12 10 9 9 12 11
20 20 14 13 11 11 12 13 13 13 13 13 13 12 11 14 15 10 9 9 9 10 10 10 11 9 6 6 7 9 8 4 3 3 4 8 15 13 11 9 13 15 11
19 18 18 16 13 12 12 16 15 14 14 14 14 13 14 12 12 11 11 11 10 11 11 9 9 7 5 4 7 8 6 5 3 2 3 9 14 13 10 13 15 11 6
18 18 19 18 16 15 15 15 15 14 14 15 14 13 14 14 12 10 11 11 11 10 8 8 7 6 4 4 4 4 4 4 3 3 7 12 13 10 11 11 9 6 5
19 18 17 18 19 17 16 17 16 15 16 15 15 14 13 13 12 11 10 11 10 9 8 7 5 4 3 4 6 4 3 3 4 5 6 8 8 8 8 8 7 5 5
20 20 21 21 20 20 19 18 17 16 16 14 14 12 11 10 10 10 11 13 13 12 11 9 6 3 5 10 9 7 5 4 6 7 8 10 10 10 10 9 7 6 6
Wind_Direction
163 145 149 152 143 133 134 139 140 139 154 162 180 182 169 181 170 131 104 85 39 33 355 325 351 324 319 328 315 303 301 293 280 276 277 263 247 239 235 236 238 237 235
116 120 120 130 136 136 133 132 141 156 167 141 133 136 125 201 184 101 109 105 67 21 323 23 334 334 332 307 304 314 302 298 300 292 293 286 267 243 240 230 232 236 235
112 110 101 88 98 116 139 151 149 155 153 142 179 167 156 233 199 133 142 122 85 289 306 317 312 324 309 314 331 308 308 309 303 280 270 281 286 314 276 257 246 237 230
60 64 70 78 82 86 90 107 130 140 140 158 201 225 235 261 215 169 133 114 224 242 238 246 277 307 307 307 310 345 331 310 302 296 274 263 279 288 295 286 269 254 237
59 55 50 55 61 70 82 87 117 140 150 169 334 319 296 302 329 17 66 255 252 232 230 225 253 300 292 305 320 311 303 297 293 295 297 293 282 264 266 280 279 273 254
64 55 47 43 42 41 44 50 67 62 43 18 332 300 306 321 328 323 307 280 269 249 228 224 158 293 293 309 303 295 292 288 289 288 285 281 279 277 270 271 276 271 264
59 53 47 41 41 38 32 34 40 35 19 11 358 350 343 326 305 293 292 290 290 287 315 6 332 285 287 282 279 283 284 284 282 281 277 275 274 275 275 274 275 274 273
62 56 51 45 40 37 33 30 29 28 21 17 12 8 5 350 341 341 334 323 315 314 335 315 282 276 276 283 287 290 285 284 285 283 280 275 271 267 266 265 270 276 267
61 57 53 47 40 37 35 28 25 24 19 13 6 15 15 5 354 344 333 327 328 320 327 320 298 284 279 278 282 282 285 286 284 283 282 278 275 269 262 257 247 243 253
51 49 48 45 39 32 31 27 19 14 11 7 2 2 0 357 351 345 341 334 329 322 314 307 298 288 279 276 275 282 284 290 288 282 279 278 276 272 267 258 246 232 230
22 19 18 16 10 6 2 1 357 351 347 343 343 339 339 341 336 332 333 332 325 317 308 302 297 290 282 275 272 277 282 289 294 294 293 291 284 275 268 260 246 236 224
345 341 341 341 343 343 342 338 333 327 324 324 323 322 323 322 317 316 318 319 317 315 308 299 293 290 286 280 275 277 285 291 297 299 301 301 300 292 278 262 248 235 216
319 319 322 323 322 320 317 311 307 303 301 300 298 297 295 295 294 293 295 297 299 302 306 305 295 291 289 284 277 272 274 281 288 300 304 304 305 299 291 272 250 228 202
309 306 303 296 294 291 287 285 282 278 276 273 272 271 270 269 270 272 274 276 279 284 289 295 298 295 291 284 277 273 271 272 279 291 300 306 310 305 296 276 246 188 163
307 306 303 293 283 279 275 275 272 269 267 267 265 262 262 262 261 263 264 265 268 274 277 285 294 295 290 284 287 278 272 267 271 281 295 329 349 356 339 284 201 158 145
317 318 309 301 298 296 294 291 287 282 276 272 272 270 266 265 263 261 260 260 261 264 266 271 282 288 289 307 311 294 284 278 263 259 233 176 96 62 60 63 84 131 144
330 318 312 310 308 305 298 294 293 290 285 281 281 278 275 271 266 269 267 262 263 267 270 272 276 278 282 279 271 272 274 266 255 232 196 195 149 143 113 92 84 82 99
320 317 314 311 304 302 298 294 294 289 286 283 283 282 281 281 278 275 273 272 273 275 277 277 276 277 282 274 254 263 268 263 250 218 183 163 152 150 132 112 94 81 78
315 313 311 307 303 299 295 292 291 289 286 284 281 281 280 281 280 280 279 280 278 279 276 275 269 271 274 263 244 241 259 256 238 209 180 163 154 143 132 120 109 99 88
314 309 305 303 299 297 295 291 291 287 284 283 279 278 276 277 277 276 277 279 277 275 274 270 267 268 271 252 227 221 239 250 236 201 175 162 149 145 138 132 126 119 116
310 307 304 302 299 298 293 290 290 287 285 283 279 275 273 272 271 267 266 267 270 273 275 275 272 265 263 244 224 213 221 229 232 195 175 158 148 147 142 137 131 131 130
310 310 307 302 299 300 299 296 293 293 292 290 287 283 279 279 280 275 272 269 267 269 268 265 265 262 252 233 213 206 208 215 215 203 176 157 153 148 144 138 140 143 140
314 315 313 309 307 306 303 300 299 298 295 290 286 283 283 280 277 274 272 270 263 260 263 261 260 254 233 189 183 189 187 195 194 213 181 160 156 146 138 144 150 155 154
319 317 314 311 309 308 304 299 297 294 289 286 285 283 280 276 272 267 266 264 262 260 258 258 259 252 220 185 175 179 169 177 172 178 161 160 161 154 144 152 163 175 171
319 319 316 312 309 307 304 301 298 293 289 286 284 281 276 274 271 266 260 258 257 253 250 256 251 235 216 173 158 168 161 166 161 148 154 164 165 160 155 164 178 182 162
322 319 316 313 311 308 304 301 297 294 288 285 282 277 272 270 269 267 269 256 248 250 239 230 230 214 157 147 151 153 140 134 144 153 171 173 172 166 165 171 175 173 154
Height
1472 1475 1476 1481 1483 1485 1486 1491 1495 1498 1500 1502 1503 1506 1508 1509 1510 1511 1510 1510 1510 1509 1508 1508 1507 1506 1505 1504 1502 1501 1500 1499 1498 1497 1495 1494 1493 1493 1492 1492 1493 1493 1494
1470 1472 1474 1478 1482 1484 1486 1489 1493 1495 1498 1500 1502 1504 1505 1506 1508 1508 1508 1508 1507 1507 1506 1505 1504 1503 1501 1500 1499 1498 1496 1495 1495 1494 1492 1490 1489 1487 1487 1487 1486 1487 1488
1473 1474 1478 1479 1481 1484 1486 1488 1492 1495 1496 1498 1500 1503 1503 1504 1506 1505 1505 1505 1505 1504 1503 1502 1501 1499 1498 1497 1496 1495 1493 1492 1492 1491 1491 1489 1485 1484 1483 1483 1483 1482 1483
1475 1476 1478 1480 1482 1484 1486 1488 1491 1495 1497 1497 1499 1501 1502 1503 1503 1503 1503 1502 1502 1502 1501 1499 1498 1497 1495 1494 1493 1492 1490 1489 1487 1487 1487 1486 1485 1484 1480 1479 1479 1479 1479
1480 1481 1483 1480 1482 1485 1486 1490 1492 1494 1496 1496 1497 1499 1500 1500 1500 1501 1500 1500 1500 1499 1498 1497 1496 1494 1492 1491 1489 1488 1486 1485 1484 1483 1482 1481 1480 1480 1479 1476 1475 1475 1475
1485 1486 1486 1485 1487 1488 1490 1492 1493 1494 1494 1495 1495 1497 1496 1496 1497 1497 1497 1497 1497 1497 1496 1494 1492 1491 1489 1488 1486 1484 1482 1481 1480 1478 1477 1476 1476 1475 1474 1473 1471 1471 1471
1488 1489 1489 1490 1490 1491 1491 1492 1492 1492 1492 1492 1493 1494 1494 1493 1494 1494 1495 1494 1494 1494 1493 1491 1489 1487 1486 1484 1482 1480 1479 1477 1475 1473 1472 1471 1471 1470 1470 1469 1467 1467 1467
1491 1492 1493 1493 1494 1493 1493 1492 1491 1491 1491 1491 1491 1490 1490 1490 1490 1490 1490 1490 1490 1490 1489 1487 1485 1483 1482 1480 1479 1476 1474 1473 1471 1469 1467 1466 1465 1464 1464 1464 1463 1462 1462
1496 1496 1496 1496 1496 1495 1494 1493 1492 1491 1490 1489 1488 1487 1487 1486 1486 1486 1485 1485 1485 1484 1484 1482 1481 1479 1477 1476 1474 1472 1471 1469 1466 1464 1462 1461 1459 1459 1458 1458 1458 1459 1458
1498 1499 1499 1498 1497 1497 1495 1493 1492 1490 1489 1487 1486 1486 1485 1483 1482 1482 1481 1480 1479 1478 1477 1477 1476 1474 1473 1471 1470 1468 1466 1464 1462 1459 1457 1455 1454 1452 1452 1451 1452 1452 1453
1501 1501 1500 1499 1497 1496 1494 1493 1491 1489 1487 1486 1484 1483 1481 1479 1479 1478 1476 1475 1474 1473 1471 1470 1469 1468 1467 1466 1465 1463 1461 1460 1457 1455 1453 1451 1449 1447 1446 1445 1445 1446 1447
1502 1501 1500 1498 1496 1494 1493 1491 1489 1487 1485 1483 1481 1479 1477 1475 1473 1472 1470 1469 1468 1466 1465 1464 1463 1462 1461 1460 1459 1458 1456 1455 1453 1451 1448 1446 1444 1442 1441 1440 1439 1440 1441
1501 1499 1498 1496 1494 1492 1490 1487 1485 1483 1481 1478 1476 1474 1472 1470 1467 1465 1464 1462 1461 1459 1458 1457 1456 1455 1454 1453 1453 1452 1451 1449 1448 1446 1444 1442 1440 1438 1436 1435 1435 1435 1437
1498 1496 1494 1492 1490 1488 1485 1483 1481 1478 1476 1473 1471 1468 1466 1464 1461 1459 1457 1456 1454 1452 1451 1450 1449 1448 1447 1447 1446 1446 1445 1444 1443 1441 1440 1438 1436 1434 1433 1432 1431 1431 1433
1493 1491 1489 1487 1485 1483 1481 1478 1476 1473 1471 1468 1466 1463 1461 1459 1456 1454 1452 1450 1448 1446 1444 1443 1442 1441 1441 1441 1440 1439 1439 1438 1438 1437 1436 1434 1433 1431 1430 1429 1429 1429 1431
1488 1487 1485 1483 1481 1478 1476 1473 1471 1468 1466 1463 1460 1458 1456 1453 1451 1448 1446 1444 1442 1440 1439 1437 1436 1435 1435 1434 1433 1433 1433 1433 1433 1432 1432 1431 1430 1429 1428 1427 1427 1428 1430
1485 1483 1481 1478 1475 1473 1470 1467 1464 1462 1459 1457 1454 1452 1449 1447 1444 1442 1440 1438 1437 1435 1434 1432 1431 1430 1428 1427 1427 1427 1427 1427 1428 1428 1428 1428 1427 1427 1426 1426 1426 1427 1430
1481 1478 1476 1472 1469 1466 1463 1460 1457 1455 1452 1449 1447 1445 1443 1440 1438 1436 1434 1432 1431 1430 1428 1427 1426 1424 1422 1422 1421 1420 1421 1422 1423 1424 1424 1425 1425 1425 1425 1425 1426 1427 1429
1477 1473 1470 1466 1462 1459 1456 1452 1449 1447 1444 1441 1439 1437 1435 1433 1431 1429 1427 1426 1424 1423 1421 1420 1419 1418 1417 1416 1415 1415 1415 1416 1418 1419 1421 1422 1423 1424 1425 1425 1426 1428 1430
1471 1467 1463 1459 1455 1451 1448 1444 1441 1438 1436 1433 1431 1429 1427 1425 1423 1421 1420 1418 1417 1416 1415 1414 1413 1412 1411 1411 1410 1410 1410 1411 1413 1416 1417 1419 1421 1423 1424 1425 1426 1428 1431
1464 1460 1455 1451 1447 1443 1440 1436 1432 1429 1427 1424 1422 1420 1418 1416 1414 1413 1411 1411 1410 1409 1408 1407 1406 1406 1406 1405 1405 1404 1405 1407 1408 1411 1414 1416 1419 1421 1424 1426 1427 1429 1433
1457 1452 1447 1443 1439 1435 1431 1426 1423 1420 1418 1415 1412 1410 1408 1407 1406 1404 1403 1402 1402 1401 1401 1400 1399 1399 1399 1399 1399 1399 1400 1402 1404 1407 1411 1414 1417 1420 1423 1426 1428 1431 1435
1449 1445 1440 1435 1430 1427 1423 1418 1414 1411 1407 1404 1402 1400 1398 1397 1396 1395 1394 1394 1394 1394 1394 1394 1393 1393 1394 1394 1394 1395 1396 1398 1400 1403 1407 1411 1416 1420 1423 1426 1429 1433 1437
1442 1437 1432 1426 1421 1417 1413 1409 1404 1400 1397 1393 1390 1389 1387 1386 1386 1385 1385 1386 1386 1386 1387 1388 1388 1388 1389 1390 1390 1391 1392 1394 1396 1400 1404 1410 1415 1419 1423 1427 1430 1434 1438
1435 1430 1424 1418 1412 1407 1402 1398 1394 1389 1385 1382 1380 1378 1377 1376 1375 1375 1376 1376 1377 1379 1380 1382 1383 1384 1385 1386 1387 1387 1389 1391 1393 1397 1401 1407 1413 1418 1422 1426 1430 1434 1438
1428 1422 1416 1409 1403 1397 1391 1387 1383 1379 1374 1371 1369 1368 1367 1366 1366 1366 1367 1368 1369 1371 1373 1375 1378 1379 1381 1382 1383 1385 1387 1389 1391 1395 1400 1406 1411 1416 1421 1425 1430 1434 1438